Regional Weather Roundup
Issued by NWS Newport/Morehead, NC

Current Version | Previous Version | Graphics & Text | Print | Product List | Glossary Off
Versions: 1 2 3 4 5 6 7 8 9 10 11 12 13 14 15 16 17 18 19 20 21 22 23 24 25 26 27 28 29 30 31 32 33 34 35 36 37 38 39 40 41 42 43 44 45 46 47 48 49 50

000
ASUS42 KMHX 240325
RWRMHX
WEATHER ROUNDUP FOR EASTERN NORTH CAROLINA
NATIONAL WEATHER SERVICE NEWPORT/MOREHEAD CITY NC
1000 PM EST FRI FEB 23 2018

NOTE: "FAIR" INDICATES FEW OR NO CLOUDS BELOW 12,000 FEET
WITH NO SIGNIFICANT WEATHER AND/OR OBSTRUCTIONS TO VISIBILITY

NCZ015>017-031-032-045>047-102-103-240400-
NORTH COAST

CITY           SKY/WX    TMP DP  RH WIND       PRES   REMARKS
EDENTON        MOCLDY    59  57  94 S5        30.34S
ELIZABETH CITY FOG       50  50 100 S5        30.34F VSB 1/2
KITTY HAWK     FAIR     N/A N/A N/A CALM      30.33S
MANTEO         CLOUDY    50  50 100 SW5       30.34F FOG

$$

NCZ045>047-081-094-103-104-240400-
CENTRAL COAST

CITY           SKY/WX    TMP DP  RH WIND       PRES   REMARKS
FRISCO         FAIR      56  54  93 SE5       30.34F FOG

$$

NCZ095-097-098-100-101-240400-
SOUTHERN COAST

CITY           SKY/WX    TMP DP  RH WIND       PRES   REMARKS
BEAUFORT       FAIR      64  61  90 S8        30.33F
CEDAR ISLAND   NOT AVBL
JACKSONVILLE   FAIR      63  62  97 CALM      30.32F
PINEY ISLAND   NOT AVBL
WILMINGTON     FAIR      63  62  97 S3        30.34S


$$

NCZ011>013-027>030-043-044-078>080-089-090>093-098-240400-
COASTAL PLAIN

CITY           SKY/WX    TMP DP  RH WIND       PRES   REMARKS
AHOSKIE        FAIR      52  52 100 S6        30.32S
CLINTON        FAIR      64  64 100 CALM      30.33S
ELIZABETHTOWN  NOT AVBL
GOLDSBORO      MOCLDY    64  63  94 CALM      30.31S
GREENVILLE     FAIR      63  61  94 S5        30.33S
HAVELOCK       PTCLDY    64  64 100 VRB3      30.34F
KENANSVILLE    CLOUDY    64  63  94 CALM      30.33S
KINSTON        MOCLDY    64  63  96 S7        30.33F
NEW BERN       FAIR      62  62 100 S3        30.34F
RICHLANDS      NOT AVBL
ROCKY MOUNT    FAIR      52  52 100 CALM      30.31F FOG
WASHINGTON     CLOUDY    63  61  95 CALM      30.34S
WHITEVILLE     FAIR      64  62  93 S3        30.32F

$$

AMZ130-135-150-152-154-156-158-170-250-252-270-ANZ085-086-088-633-658-670-240400-
MARINE OBSERVATIONS

STATION/POSITION TIME  TEMP    WIND        PRES    WAVE   SWELL
                       AIR SEA DIR/SP/G            HT/PER HT/PER
                 (UTC) (F)     (DEG/KT/KT) (MB)    (FT/S) (FT/S)
CHESAPEAKE LIGHT NOT AVBL
64 E VA BEACH    0250   47 50  210/  4/  6 1027.8    5/ 8   5/ 8
DUCK             0300      46  170/  6/  7 1026.6
2 E DUCK         0300      46                N/A     4/ 8   2/12
OREGON INLET     0300   47 51  120/  3/  4 1027.3
13E OREGON INLT  0248      49                N/A     5/ 9   5/ 9
HATTERAS CG      0300   58 61  120/  4/  5 1027.1
DIAMOND BUOY     0310   71     200/ 12/ 16 1027.5
CAPE LOOKOUT     0300          180/  5/  6 1027.6
BEAUFORT LAB     0300   63 62  140/  6/  9 1027.3
30 SE NEW RVR IN 0208   70 69  190/  6/ 10 1027.8
30 SE NEW RVR IN 0300      69                N/A     4/ 9   2/11
27 SE WRIGHTSVLE 0208   69 71  180/  8/ 12 1027.8
5 SE WRIGHTSVLE  0308   62 59  200/  6/ 10 1027.1
225 S CAPE HAT   0250   72 73  150/  8/ 10 1028.6    5/ 9   5/ 9
41 SE CHARLESTON 0310   69     120/  8/ 10 1027.5

$$




USA.gov is the U.S. government's official web portal to all federal, state and local government web resources and services.